Weather History for Reidsville, NC

Change the Weather History Date:

Sunday, January 22, 2012

  Actual Average (KGSO) Record (KGSO)
Temperature  
Mean Temperature 34 °F 39 °F  
Max Temperature 37 °F 49 °F 72 °F (1967)
Min Temperature 32 °F 30 °F 4 °F (1985)
Degree Days  
Heating Degree Days 30 26  
Month to date heating degree days 572  
Since 1 July heating degree days 1986  
Cooling Degree Days 0 0  
Month to date cooling degree days 0  
Year to date cooling degree days 0  
Moisture  
Dew Point 32 °F    
Average Humidity 88    
Maximum Humidity 99    
Minimum Humidity 80    
Precipitation  
Precipitation 0.00 in 0.09 in 2.02 in (1954)
Month to date precipitation 2.20  
Year to date precipitation 2.20  
Snow  
Snow 0.00 in 0.10 in 10.20 in (1987)
Month to date snowfall 2.4  
Since 1 July snowfall 3.3  
Snow Depth -    
Sea Level Pressure  
Sea Level Pressure 30.32 in    
Wind  
Wind Speed 5 mph (NE)    
Max Wind Speed 9 mph    
Max Gust Speed 16 mph    
Visibility 8 miles    
Events      
T = Trace of Precipitation, MM = Missing Value Source: NWS Daily Summary

Daily Weather History Graph

Daily Weather History Graph

Search for Another Location

Airport:

Trip Planner

Search our weather history database for the weather conditions in past years. The results will help you decide how hot, cold, wet, or windy it might be!

Date:

Astronomy

Jan. 22, 2012 Rise Set
Actual Time 7:27 AM EST 5:34 PM EST
Civil Twilight 7:00 AM EST 6:02 PM EST
Nautical Twilight 6:28 AM EST 6:33 PM EST
Astronomical Twilight 5:57 AM EST 7:04 PM EST
Moon 6:43 AM EST (1/22) 5:14 PM EST (1/22)
Length of Visible Light 11h 02m
Length of Day
10h 06m
Waning Crescent, 0% of the Moon is Illuminated
Jan 22
Waning Crescent
Jan 23
New
Jan 30
First Quarter
Feb 7
Full
Feb 14
Last Quarter

Hourly Weather History & Observations

Time (EST) Temp. Windchill Dew Point Humidity Pressure Visibility Wind Dir Wind Speed Gust Speed Precip Events Conditions
12:15 AM 37.0 °F 33.3 °F 35.1 °F 93% 30.20 in 7.0 mi ENE 4.6 mph - N/A   Overcast
12:35 AM 36.9 °F 34.3 °F 35.2 °F 94% 30.22 in 7.0 mi ENE 3.5 mph - N/A   Overcast
12:55 AM 36.7 °F 32.0 °F 35.1 °F 94% 30.22 in 10.0 mi ENE 5.8 mph - N/A   Overcast
1:15 AM 36.5 °F 31.0 °F 34.7 °F 93% 30.23 in 10.0 mi ENE 6.9 mph - N/A   Overcast
1:35 AM 36.5 °F 30.3 °F 34.0 °F 91% 30.23 in 10.0 mi ENE 8.1 mph - N/A   Overcast
1:55 AM 36.3 °F 30.1 °F 33.3 °F 89% 30.24 in 10.0 mi ENE 8.1 mph - N/A   Overcast
2:15 AM 36.0 °F 29.0 °F 32.5 °F 87% 30.25 in 10.0 mi NE 9.2 mph - N/A   Overcast
2:35 AM 35.8 °F 30.1 °F 32.0 °F 86% 30.26 in 10.0 mi NE 6.9 mph - N/A   Overcast
2:55 AM 35.8 °F 30.1 °F 32.0 °F 86% 30.26 in 10.0 mi NE 6.9 mph - N/A   Overcast
3:15 AM 35.6 °F 29.9 °F 32.0 °F 87% 30.26 in 10.0 mi NE 6.9 mph - N/A   Overcast
3:35 AM 35.4 °F 29.7 °F 31.3 °F 85% 30.27 in 10.0 mi NE 6.9 mph 16.1 mph N/A   Scattered Clouds
3:55 AM 34.3 °F 27.7 °F 30.2 °F 85% 30.27 in 10.0 mi NE 8.1 mph - N/A   Clear
4:15 AM 33.6 °F 28.4 °F 30.0 °F 87% 30.27 in 10.0 mi NE 5.8 mph - N/A   Scattered Clouds
4:35 AM 33.8 °F 29.6 °F 30.0 °F 86% 30.28 in 10.0 mi NE 4.6 mph - N/A   Overcast
4:55 AM 33.8 °F 28.6 °F 30.2 °F 87% 30.29 in 10.0 mi NE 5.8 mph - N/A   Overcast
5:15 AM 33.8 °F 29.6 °F 30.0 °F 86% 30.29 in 10.0 mi NE 4.6 mph - N/A   Overcast
5:35 AM 33.8 °F 29.6 °F 29.7 °F 85% 30.29 in 10.0 mi ENE 4.6 mph - N/A   Overcast
6:15 AM 33.3 °F 27.1 °F 29.1 °F 85% 30.30 in 10.0 mi NE 6.9 mph - N/A   Overcast
6:35 AM 33.1 °F 27.7 °F 29.1 °F 85% 30.31 in 10.0 mi NE 5.8 mph - N/A   Overcast
7:15 AM 32.9 °F 28.5 °F 29.1 °F 86% 30.32 in 10.0 mi NE 4.6 mph - N/A   Overcast
7:55 AM 32.9 °F 27.5 °F 28.9 °F 85% 30.34 in 10.0 mi NNE 5.8 mph - N/A   Overcast
8:15 AM 32.7 °F 26.4 °F 28.6 °F 85% 30.35 in 10.0 mi NE 6.9 mph - N/A   Overcast
8:35 AM 32.5 °F 29.3 °F 28.4 °F 85% 30.35 in 10.0 mi NE 3.5 mph - N/A   Overcast
8:55 AM 32.9 °F 27.5 °F 28.8 °F 85% 30.35 in 10.0 mi NE 5.8 mph - N/A   Overcast
9:15 AM 33.1 °F 28.7 °F 28.6 °F 84% 30.36 in 10.0 mi NE 4.6 mph - N/A   Overcast
9:35 AM 33.6 °F 26.8 °F 28.9 °F 83% 30.37 in 10.0 mi ENE 8.1 mph - N/A   Overcast
9:55 AM 33.8 °F 27.0 °F 28.8 °F 82% 30.39 in 10.0 mi NE 8.1 mph - N/A   Overcast
10:15 AM 33.8 °F 27.7 °F 28.9 °F 82% 30.39 in 10.0 mi NNE 6.9 mph - N/A   Overcast
10:35 AM 34.3 °F 28.4 °F 29.1 °F 81% 30.37 in 10.0 mi NNE 6.9 mph - N/A   Overcast
11:15 AM 35.1 °F 31.0 °F 29.7 °F 81% 30.38 in 10.0 mi NE 4.6 mph - N/A   Overcast
11:35 AM 35.4 °F 29.7 °F 29.8 °F 80% 30.37 in 10.0 mi NNE 6.9 mph - N/A   Overcast
11:55 AM 35.6 °F 32.8 °F 30.0 °F 80% 30.37 in 10.0 mi East 3.5 mph - N/A   Overcast
12:15 PM 35.6 °F 29.2 °F 30.6 °F 82% 30.37 in 10.0 mi NNE 8.1 mph - N/A   Overcast
12:35 PM 35.6 °F 30.7 °F 30.9 °F 83% 30.37 in 10.0 mi ENE 5.8 mph - N/A   Overcast
12:55 PM 35.6 °F 31.7 °F 30.9 °F 83% 30.37 in 10.0 mi NE 4.6 mph - N/A   Overcast
1:35 PM 36.0 °F - 31.6 °F 84% 30.36 in 10.0 mi Calm Calm - N/A   Overcast
1:55 PM 35.8 °F - 31.8 °F 86% 30.35 in 10.0 mi Calm Calm - N/A   Overcast
2:15 PM 36.0 °F - 32.0 °F 86% 30.35 in 10.0 mi Calm Calm - N/A   Overcast
2:35 PM 36.0 °F - 32.0 °F 86% 30.35 in 10.0 mi Calm Calm - N/A   Overcast
2:55 PM 36.0 °F 33.3 °F 32.0 °F 86% 30.35 in 10.0 mi North 3.5 mph - N/A   Overcast
3:15 PM 36.1 °F 33.5 °F 32.0 °F 85% 30.35 in 10.0 mi NE 3.5 mph - N/A   Overcast
3:35 PM 36.1 °F - 32.2 °F 86% 30.35 in 10.0 mi Calm Calm - N/A   Overcast
3:55 PM 36.3 °F - 32.4 °F 86% 30.35 in 10.0 mi Calm Calm - N/A   Overcast
4:15 PM 36.3 °F 32.5 °F 32.5 °F 86% 30.35 in 10.0 mi NNE 4.6 mph - N/A   Overcast
4:35 PM 36.1 °F 32.3 °F 32.9 °F 88% 30.35 in 10.0 mi NNE 4.6 mph - N/A   Overcast
4:55 PM 36.1 °F - 32.9 °F 88% 30.34 in 10.0 mi Calm Calm - N/A   Overcast
5:15 PM 35.8 °F 33.0 °F 32.9 °F 89% 30.34 in 10.0 mi ENE 3.5 mph - N/A   Overcast
5:35 PM 35.6 °F - 32.9 °F 90% 30.36 in 10.0 mi Calm Calm - N/A   Overcast
5:55 PM 35.6 °F - 33.1 °F 91% 30.35 in 10.0 mi Calm Calm - N/A   Overcast
6:15 PM 35.6 °F - 33.3 °F 91% 30.35 in 10.0 mi Calm Calm - N/A   Overcast
6:35 PM 35.2 °F - 33.4 °F 93% 30.35 in 4.0 mi Calm Calm - N/A   Overcast
6:55 PM 35.1 °F - 33.8 °F 95% 30.36 in 2.5 mi Calm Calm - N/A   Overcast
7:15 PM 34.9 °F - 34.0 °F 97% 30.35 in 2.0 mi Calm Calm - N/A   Overcast
7:35 PM 34.9 °F - 34.0 °F 97% 30.34 in 1.8 mi Calm Calm - N/A   Overcast
7:55 PM 34.7 °F - 34.0 °F 97% 30.35 in 1.5 mi Calm Calm - N/A   Overcast
8:15 PM 34.7 °F - 34.2 °F 98% 30.34 in 1.2 mi Calm Calm - N/A   Overcast
8:35 PM 34.7 °F 31.8 °F 34.2 °F 98% 30.35 in 1.2 mi NE 3.5 mph - N/A   Overcast
8:55 PM 34.7 °F - 34.2 °F 98% 30.35 in 1.0 mi Calm Calm - N/A   Overcast
9:15 PM 34.7 °F - 34.2 °F 98% 30.34 in 1.0 mi Calm Calm - N/A   Overcast
9:35 PM 34.5 °F - 34.3 °F 99% 30.34 in 0.8 mi Calm Calm - N/A   Overcast
9:55 PM 34.5 °F - 34.3 °F 99% 30.34 in 0.8 mi Calm Calm - N/A   Overcast
10:15 PM 34.3 °F - 34.3 °F 100% 30.34 in 0.8 mi Calm Calm - N/A   Overcast
10:35 PM 34.5 °F - 34.5 °F 100% 30.34 in 0.8 mi Calm Calm - N/A   Overcast
10:55 PM 34.7 °F - 34.7 °F 100% 30.32 in 0.8 mi Calm Calm - N/A   Overcast
11:15 PM 34.7 °F - 34.7 °F 100% 30.33 in 0.8 mi Calm Calm - N/A   Overcast
11:35 PM 34.7 °F - 34.7 °F 100% 30.32 in 1.0 mi Calm Calm - N/A   Overcast
11:55 PM 34.7 °F - 34.7 °F 100% 30.32 in 1.0 mi Calm Calm - N/A   Overcast